TimeCDT,TemperatureF,Dew PointF,Humidity,Sea Level PressureIn,VisibilityMPH,Wind Direction,Wind SpeedMPH,Gust SpeedMPH,PrecipitationIn,Events,Conditions,WindDirDegrees,DateUTC
12:15 AM,73.9,70.7,90,30.27,10.0,Calm,Calm,-,N/A,,Clear,0,2013-07-16 05:15:00
12:35 AM,73.4,70.3,90,30.26,10.0,SSE,3.5,-,N/A,,Clear,160,2013-07-16 05:35:00
12:55 AM,73.6,70.7,91,30.26,10.0,Calm,Calm,-,N/A,,Clear,0,2013-07-16 05:55:00
1:15 AM,73.6,70.7,91,30.26,10.0,Calm,Calm,-,N/A,,Clear,0,2013-07-16 06:15:00
1:35 AM,73.9,70.7,90,30.27,10.0,Calm,Calm,-,N/A,,Clear,0,2013-07-16 06:35:00
1:55 AM,72.5,70.3,93,30.26,10.0,Calm,Calm,-,N/A,,Clear,0,2013-07-16 06:55:00
2:15 AM,73.2,70.9,92,30.27,10.0,Calm,Calm,-,N/A,,Clear,0,2013-07-16 07:15:00
2:35 AM,73.0,70.7,92,30.26,7.0,Calm,Calm,-,N/A,,Clear,0,2013-07-16 07:35:00
2:55 AM,72.3,70.7,95,30.26,7.0,Calm,Calm,-,N/A,,Clear,0,2013-07-16 07:55:00
3:15 AM,73.0,71.1,93,30.26,7.0,South,4.6,-,N/A,,Clear,180,2013-07-16 08:15:00
3:35 AM,72.0,70.7,96,30.26,7.0,Calm,Calm,-,N/A,,Clear,0,2013-07-16 08:35:00
3:55 AM,71.1,70.2,97,30.26,5.0,SSE,3.5,-,N/A,,Scattered Clouds,150,2013-07-16 08:55:00
4:15 AM,71.8,70.7,96,30.26,5.0,Calm,Calm,-,N/A,,Scattered Clouds,0,2013-07-16 09:15:00
4:35 AM,70.9,70.5,99,30.26,4.0,SSE,3.5,-,N/A,,Clear,160,2013-07-16 09:35:00
4:55 AM,68.7,68.0,98,30.27,3.0,Calm,Calm,-,N/A,,Clear,0,2013-07-16 09:55:00
5:15 AM,67.1,66.6,98,30.27,5.0,Calm,Calm,-,N/A,,Clear,0,2013-07-16 10:15:00
5:35 AM,66.6,65.8,98,30.27,4.0,Calm,Calm,-,N/A,,Clear,0,2013-07-16 10:35:00
5:55 AM,67.1,66.2,97,30.27,4.0,Calm,Calm,-,N/A,,Clear,0,2013-07-16 10:55:00
6:15 AM,68.5,68.0,98,30.27,2.0,Calm,Calm,-,N/A,,Clear,0,2013-07-16 11:15:00
6:35 AM,70.3,69.3,96,30.27,3.0,Calm,Calm,-,N/A,,Clear,0,2013-07-16 11:35:00
6:55 AM,73.6,71.6,93,30.27,4.0,Calm,Calm,-,N/A,,Clear,0,2013-07-16 11:55:00
7:15 AM,74.7,71.8,91,30.27,5.0,Calm,Calm,-,N/A,,Clear,0,2013-07-16 12:15:00
7:35 AM,76.5,72.3,87,30.27,10.0,SSW,3.5,-,N/A,,Clear,200,2013-07-16 12:35:00
7:55 AM,78.1,72.7,83,30.28,10.0,SW,4.6,-,N/A,,Clear,220,2013-07-16 12:55:00
8:15 AM,78.6,72.9,82,30.28,10.0,WSW,6.9,-,N/A,,Clear,240,2013-07-16 13:15:00
8:35 AM,79.5,73.0,80,30.28,10.0,WSW,5.8,-,N/A,,Clear,240,2013-07-16 13:35:00
8:55 AM,80.6,72.5,76,30.28,10.0,WSW,10.4,-,N/A,,Clear,240,2013-07-16 13:55:00
9:15 AM,81.7,72.9,74,30.28,10.0,WSW,9.2,-,N/A,,Clear,240,2013-07-16 14:15:00
9:35 AM,82.4,72.5,72,30.27,10.0,WSW,11.5,-,N/A,,Clear,240,2013-07-16 14:35:00
10:15 AM,84.0,72.0,67,30.27,10.0,WSW,11.5,-,N/A,,Scattered Clouds,250,2013-07-16 15:15:00
11:15 AM,86.0,72.1,63,30.27,10.0,SW,12.7,18.4,N/A,,Mostly Cloudy,220,2013-07-16 16:15:00
11:35 AM,86.2,71.6,62,30.26,10.0,WSW,10.4,-,N/A,,Mostly Cloudy,240,2013-07-16 16:35:00
12:55 PM,86.7,71.2,60,30.25,10.0,WSW,8.1,-,N/A,,Scattered Clouds,250,2013-07-16 17:55:00
1:15 PM,87.8,70.7,57,30.25,10.0,WSW,11.5,16.1,N/A,,Clear,250,2013-07-16 18:15:00
1:35 PM,88.3,71.4,57,30.25,10.0,WSW,9.2,17.3,N/A,,Scattered Clouds,240,2013-07-16 18:35:00
1:55 PM,88.7,71.1,56,30.25,10.0,SW,11.5,-,N/A,,Scattered Clouds,230,2013-07-16 18:55:00
2:15 PM,88.7,71.1,56,30.24,10.0,SW,10.4,-,N/A,,Scattered Clouds,220,2013-07-16 19:15:00
2:35 PM,89.1,69.8,53,30.24,10.0,SW,9.2,19.6,N/A,,Scattered Clouds,230,2013-07-16 19:35:00
3:55 PM,89.2,71.4,56,30.22,10.0,SW,11.5,-,N/A,,Scattered Clouds,220,2013-07-16 20:55:00
4:15 PM,89.8,71.8,55,30.22,10.0,WSW,13.8,18.4,N/A,,Scattered Clouds,250,2013-07-16 21:15:00
4:35 PM,89.4,71.1,55,30.22,10.0,WSW,12.7,18.4,N/A,,Scattered Clouds,240,2013-07-16 21:35:00
4:55 PM,88.9,71.1,55,30.22,10.0,SW,10.4,-,N/A,,Scattered Clouds,230,2013-07-16 21:55:00
5:15 PM,88.9,71.6,56,30.21,10.0,WSW,8.1,-,N/A,,Clear,240,2013-07-16 22:15:00
5:35 PM,87.4,70.7,57,30.22,10.0,SW,11.5,-,N/A,,Scattered Clouds,220,2013-07-16 22:35:00
5:55 PM,88.2,71.8,58,30.21,10.0,SW,11.5,16.1,N/A,,Scattered Clouds,220,2013-07-16 22:55:00
6:15 PM,86.7,71.2,60,30.22,10.0,SW,13.8,17.3,N/A,,Scattered Clouds,230,2013-07-16 23:15:00
6:35 PM,86.0,70.7,60,30.22,10.0,WSW,11.5,18.4,N/A,,Mostly Cloudy,240,2013-07-16 23:35:00
6:55 PM,85.1,71.6,64,30.22,10.0,SW,6.9,-,N/A,,Scattered Clouds,230,2013-07-16 23:55:00
7:15 PM,84.4,72.1,67,30.22,10.0,SW,8.1,-,N/A,,Clear,230,2013-07-17 00:15:00
7:35 PM,83.8,72.1,68,30.22,10.0,WSW,8.1,-,N/A,,Clear,240,2013-07-17 00:35:00
7:55 PM,83.3,72.0,68,30.22,10.0,WSW,8.1,-,N/A,,Clear,240,2013-07-17 00:55:00
8:15 PM,82.0,72.1,72,30.22,10.0,SW,6.9,-,N/A,,Clear,230,2013-07-17 01:15:00
8:35 PM,81.0,72.5,75,30.22,10.0,WSW,4.6,-,N/A,,Clear,240,2013-07-17 01:35:00
9:15 PM,80.1,71.4,75,30.22,10.0,SW,5.8,-,N/A,,Clear,230,2013-07-17 02:15:00
9:35 PM,79.2,71.6,78,30.23,10.0,SW,5.8,-,N/A,,Scattered Clouds,230,2013-07-17 02:35:00
9:55 PM,77.0,70.7,81,30.25,10.0,WNW,3.5,-,N/A,,Scattered Clouds,290,2013-07-17 02:55:00
10:15 PM,76.8,70.9,82,30.25,10.0,Calm,Calm,-,N/A,,Clear,0,2013-07-17 03:15:00
10:35 PM,76.3,70.9,83,30.25,10.0,Calm,Calm,-,N/A,,Clear,0,2013-07-17 03:35:00
10:55 PM,75.4,70.7,85,30.26,10.0,Calm,Calm,-,N/A,,Clear,0,2013-07-17 03:55:00
11:15 PM,75.4,70.7,85,30.26,10.0,Calm,Calm,-,N/A,,Clear,0,2013-07-17 04:15:00
11:35 PM,75.4,70.9,86,30.26,10.0,Calm,Calm,-,N/A,,Clear,0,2013-07-17 04:35:00
11:55 PM,73.0,70.2,91,30.26,10.0,Calm,Calm,-,N/A,,Clear,0,2013-07-17 04:55:00